Regional Weather Roundup
Issued by NWS

Home | Current Version | Previous Version | Text Only | Print | Product List | Glossary Off
Versions: 1 2 3 4 5 6 7 8 9 10 11 12 13 14 15 16 17 18 19 20 21 22 23 24 25 26 27 28 29 30 31 32 33 34 35 36 37 38 39 40 41 42 43 44 45 46 47 48 49 50

691
ASUS44 KMEG 241500
RWRTN
TENNESSEE HOURLY STATE WEATHER ROUNDUP
NATIONAL WEATHER SERVICE MEMPHIS TN
1000 AM CDT TUE MAY 24 2016

TNZ002-004-019-021-049-052-054-088>092-241600-
WEST TENNESSEE

CITY           SKY/WX    TMP DP  RH WIND       PRES   REMARKS
MEMPHIS INTL   MOSUNNY   81  60  48 S9G18     30.07F
NWS MEMPHIS      N/A     81 N/A N/A MISG        N/A
JACKSON        SUNNY     78  58  49 S9        30.09S
DYERSBURG      CLOUDY    79  59  50 S7        30.06F
UNION CITY     SUNNY     75  63  64 S7        30.06F
PARIS          SUNNY     73  57  56 S7        30.10S
LEXINGTON      SUNNY     72  61  68 S6        30.10S
$$

TNZ008-025-027-028-033-062-065-066-241600-
NORTH MIDDLE TENNESSEE

CITY           SKY/WX    TMP DP  RH WIND       PRES   REMARKS
NASHVILLE      PTSUNNY   76  52  43 VRB3      30.13S
CLARKSVILLE    CLOUDY    75  58  55 S5        30.11R
COOKEVILLE     SUNNY     75  57  53 SW5       30.14F
CROSSVILLE     SUNNY     76  49  38 W6        30.19S
$$

TNZ061-075-076-078-094-096-097-241600-
SOUTH MIDDLE TENNESSEE

CITY           SKY/WX    TMP DP  RH WIND       PRES   REMARKS
TULLAHOMA      SUNNY     73  55  53 S3        30.16S
WINCHESTER     SUNNY     75  54  46 SE6       30.16R
MCMINNVILLE    SUNNY     77  57  50 SW3       30.15S
COLUMBIA       SUNNY     79  63  57 SW6       30.11S
SHELBYVILLE    SUNNY     79  57  47 VRB3      30.15S
$$

TNZ017-018-042-046-047-241600-
NORTHEAST TENNESSEE

CITY           SKY/WX    TMP DP  RH WIND       PRES   REMARKS
TRI CITIES     SUNNY     67  51  56 CALM      30.19S
$$

TNZ012-013-036-069-073-074-241600-
CENTRAL EAST TENNESSEE

CITY           SKY/WX    TMP DP  RH WIND       PRES   REMARKS
KNOXVILLE      MOSUNNY   69  51  52 VRB3      30.17S
OAK RIDGE      SUNNY     71  51  49 S5        30.18S
GATLINBURG     SUNNY     70  50  49 CALM      30.17S
$$

TNZ083-085-099-241600-
SOUTHEAST TENNESSEE

CITY           SKY/WX    TMP DP  RH WIND       PRES   REMARKS
CHATTANOOGA    MOSUNNY   74  53  48 SW5       30.17S
$$

SKY/WX REPORTED AS FAIR MEANS FEW OR NO CLOUDS BELOW
12 THOUSAND FEET.





USA.gov is the U.S. government's official web portal to all federal, state and local government web resources and services.